History for KNYNEWYO982

Hells Kitchen, New York, NY — Current Conditions
Daily Summary for September 21, 2018
  Current: High: Low: Average:
Temperature: 71.8°F 71.8°F 69.3°F 70.6°F
Dew Point: 63.9°F 63.9°F 60.4°F 61.6°F
Humidity: 76% 76% 73% 74%
Wind Speed: 1.8mph 8.9mph - 2.1mph
Wind Gust: 3.8mph 16.8mph - -
Wind: West - - South
Pressure: 30.21in 30.35in 30.21in -
Precipitation: 0.00in      
Solar Radiation: 114 watts/m^2      
UV Index: 0.7      
Statistics for the rest of the month
    High: Low: Average:
Temperature:   92.3°F 54.9°F 74.3°F
Dew Point:   79.5°F 47.5°F 66.7°F
Humidity:   99.0% 49.0% 79.1%
Wind Speed:   8.9mph from the ENE - 1.6mph
Wind Gust:   21.5mph from the North - -
Wind:   - - SE
Pressure:   30.41in 29.82in -
Precipitation:   4.21in    
KNYNEWYO982 Weather Graph
Tabular Data for September 21, 2018
Time Temp. Dew Point Pressure Wind Gust Humidity Rainfall Solar Radiation
00:04 69.8°F 61.5°F 30.35in 4.3mph 75% 0in 0.00 watts/m^2
00:09 69.8°F 61.5°F 30.35in 4.7mph 75% 0in 0.00 watts/m^2
00:14 69.8°F 61.5°F 30.35in 1.8mph 75% 0in 0.00 watts/m^2
00:19 69.8°F 61.5°F 30.35in 3.6mph 75% 0in 0.00 watts/m^2
00:24 70°F 61.3°F 30.34in 3.4mph 74% 0in 0.00 watts/m^2
00:29 70°F 61.3°F 30.34in 5.1mph 74% 0in 0.00 watts/m^2
00:34 69.8°F 61.2°F 30.35in 1.1mph 74% 0in 0.00 watts/m^2
00:39 69.8°F 61.5°F 30.34in 0mph 75% 0in 0.00 watts/m^2
00:44 69.8°F 61.2°F 30.34in 4.5mph 74% 0in 0.00 watts/m^2
00:49 69.8°F 61.2°F 30.34in 4.3mph 74% 0in 0.00 watts/m^2
00:54 69.8°F 61.2°F 30.35in 6mph 74% 0in 0.00 watts/m^2
00:59 69.8°F 61.2°F 30.35in 0.9mph 74% 0in 0.00 watts/m^2
01:04 69.8°F 61.2°F 30.34in 6.7mph 74% 0in 0.00 watts/m^2
01:09 69.8°F 61.2°F 30.34in 7.2mph 74% 0in 0.00 watts/m^2
01:14 69.8°F 61.2°F 30.34in 2.5mph 74% 0in 0.00 watts/m^2
01:19 70°F 61.3°F 30.34in 8.7mph 74% 0in 0.00 watts/m^2
01:24 70°F 61.3°F 30.34in 3.4mph 74% 0in 0.00 watts/m^2
01:29 70°F 61.3°F 30.34in 2.2mph 74% 0in 0.00 watts/m^2
01:34 70°F 61.3°F 30.34in 2.9mph 74% 0in 0.00 watts/m^2
01:39 70°F 61.3°F 30.33in 4.9mph 74% 0in 0.00 watts/m^2
01:44 70°F 61.3°F 30.34in 7.4mph 74% 0in 0.00 watts/m^2
01:49 70°F 61.3°F 30.34in 0mph 74% 0in 0.00 watts/m^2
01:54 69.8°F 61.2°F 30.34in 4.9mph 74% 0in 0.00 watts/m^2
01:59 69.8°F 61.2°F 30.33in 1.3mph 74% 0in 0.00 watts/m^2
02:04 69.8°F 61.2°F 30.33in 3.8mph 74% 0in 0.00 watts/m^2
02:09 69.8°F 61.2°F 30.33in 5.6mph 74% 0in 0.00 watts/m^2
02:14 70°F 61°F 30.33in 3.6mph 73% 0in 0.00 watts/m^2
02:19 70°F 61°F 30.32in 5.1mph 73% 0in 0.00 watts/m^2
02:24 70°F 61°F 30.32in 1.1mph 73% 0in 0.00 watts/m^2
02:29 70°F 61°F 30.33in 2.5mph 73% 0in 0.00 watts/m^2
02:34 69.8°F 61.2°F 30.32in 3.6mph 74% 0in 0.00 watts/m^2
02:38 69.8°F 61.2°F 30.33in 4.9mph 74% 0in 0.00 watts/m^2
02:43 69.6°F 61°F 30.32in 2.7mph 74% 0in 0.00 watts/m^2
02:48 69.6°F 61°F 30.32in 7.4mph 74% 0in 0.00 watts/m^2
02:53 69.6°F 61°F 30.32in 2.2mph 74% 0in 0.00 watts/m^2
02:58 69.6°F 61°F 30.32in 4.5mph 74% 0in 0.00 watts/m^2
03:03 69.6°F 61°F 30.32in 6.7mph 74% 0in 0.00 watts/m^2
03:08 69.6°F 61°F 30.32in 6.3mph 74% 0in 0.00 watts/m^2
03:13 69.6°F 61°F 30.32in 8.1mph 74% 0in 0.00 watts/m^2
03:19 69.6°F 61°F 30.32in 5.8mph 74% 0in 0.00 watts/m^2
03:24 69.8°F 61.2°F 30.32in 5.4mph 74% 0in 0.00 watts/m^2
03:29 69.6°F 61°F 30.32in 8.7mph 74% 0in 0.00 watts/m^2
03:33 69.6°F 61°F 30.32in 2mph 74% 0in 0.00 watts/m^2
03:38 69.6°F 61°F 30.32in 5.6mph 74% 0in 0.00 watts/m^2
03:43 69.6°F 61°F 30.32in 4.7mph 74% 0in 0.00 watts/m^2
03:48 69.4°F 60.8°F 30.32in 1.1mph 74% 0in 0.00 watts/m^2
03:53 69.4°F 60.8°F 30.32in 2.2mph 74% 0in 0.00 watts/m^2
03:58 69.4°F 60.8°F 30.33in 5.6mph 74% 0in 0.00 watts/m^2
04:03 69.4°F 61.2°F 30.33in 7.2mph 75% 0in 0.00 watts/m^2
04:08 69.4°F 61.2°F 30.32in 2.9mph 75% 0in 0.00 watts/m^2
04:13 69.4°F 61.2°F 30.32in 4.7mph 75% 0in 0.00 watts/m^2
04:18 69.6°F 61.3°F 30.32in 3.6mph 75% 0in 0.00 watts/m^2
04:23 69.6°F 61.3°F 30.32in 7.6mph 75% 0in 0.00 watts/m^2
04:28 69.6°F 61°F 30.33in 3.8mph 74% 0in 0.00 watts/m^2
04:33 69.6°F 61°F 30.33in 4.5mph 74% 0in 0.00 watts/m^2
04:38 69.8°F 61.2°F 30.33in 6.9mph 74% 0in 0.00 watts/m^2
04:43 69.8°F 61.2°F 30.33in 5.8mph 74% 0in 0.00 watts/m^2
04:48 69.6°F 61°F 30.33in 4.7mph 74% 0in 0.00 watts/m^2
04:53 69.6°F 61°F 30.33in 3.1mph 74% 0in 0.00 watts/m^2
04:58 69.4°F 60.8°F 30.33in 3.6mph 74% 0in 0.00 watts/m^2
05:03 69.6°F 61°F 30.33in 2.5mph 74% 0in 0.00 watts/m^2
05:08 69.6°F 61°F 30.33in 4.9mph 74% 0in 0.00 watts/m^2
05:13 69.6°F 61°F 30.33in 3.6mph 74% 0in 0.00 watts/m^2
05:18 69.6°F 61°F 30.33in 5.4mph 74% 0in 0.00 watts/m^2
05:23 69.6°F 61°F 30.33in 3.6mph 74% 0in 0.00 watts/m^2
05:28 69.6°F 61°F 30.33in 3.4mph 74% 0in 0.00 watts/m^2
05:33 69.6°F 61°F 30.34in 2.7mph 74% 0in 0.00 watts/m^2
05:38 69.6°F 61°F 30.33in 0.9mph 74% 0in 0.00 watts/m^2
05:43 69.6°F 61°F 30.33in 5.6mph 74% 0in 0.00 watts/m^2
05:48 69.4°F 60.8°F 30.34in 3.1mph 74% 0in 0.00 watts/m^2
05:53 69.4°F 60.8°F 30.34in 4mph 74% 0in 0.00 watts/m^2
05:58 69.4°F 60.8°F 30.34in 3.1mph 74% 0in 0.00 watts/m^2
06:03 69.6°F 60.6°F 30.34in 5.8mph 73% 0in 0.00 watts/m^2
06:08 69.6°F 60.6°F 30.34in 5.4mph 73% 0in 0.00 watts/m^2
06:13 69.6°F 60.6°F 30.34in 5.1mph 73% 0in 0.00 watts/m^2
06:18 69.6°F 61.3°F 30.34in 4.7mph 75% 0in 0.00 watts/m^2
06:23 69.4°F 61.2°F 30.34in 3.4mph 75% 0in 0.00 watts/m^2
06:28 69.4°F 61.2°F 30.34in 5.1mph 75% 0in 0.00 watts/m^2
06:33 69.4°F 61.2°F 30.34in 4.9mph 75% 0in 0.00 watts/m^2
06:38 69.4°F 61.2°F 30.34in 5.6mph 75% 0in 0.00 watts/m^2
06:43 69.3°F 61°F 30.34in 5.4mph 75% 0in 1.00 watts/m^2
06:48 69.3°F 61°F 30.34in 7.6mph 75% 0in 2.00 watts/m^2
06:53 69.3°F 61°F 30.34in 3.8mph 75% 0in 3.00 watts/m^2
06:58 69.4°F 61.2°F 30.34in 4.7mph 75% 0in 5.00 watts/m^2
07:03 69.4°F 61.2°F 30.34in 5.8mph 75% 0in 6.00 watts/m^2
07:08 69.4°F 61.2°F 30.34in 4.3mph 75% 0in 7.00 watts/m^2
07:13 69.4°F 61.2°F 30.34in 6.7mph 75% 0in 12.00 watts/m^2
07:18 69.4°F 61.2°F 30.34in 5.8mph 75% 0in 15.00 watts/m^2
07:23 69.4°F 60.4°F 30.34in 5.4mph 73% 0in 16.00 watts/m^2
07:28 69.4°F 60.4°F 30.34in 7.8mph 73% 0in 19.00 watts/m^2
07:33 69.4°F 61.2°F 30.34in 7.8mph 75% 0in 21.00 watts/m^2
07:38 69.4°F 61.2°F 30.34in 4.9mph 75% 0in 21.00 watts/m^2
07:43 69.4°F 61.2°F 30.34in 2.2mph 75% 0in 24.00 watts/m^2
07:48 69.6°F 61.3°F 30.34in 10.5mph 75% 0in 19.00 watts/m^2
07:53 69.6°F 61.3°F 30.34in 2mph 75% 0in 23.00 watts/m^2
07:58 69.6°F 61.3°F 30.34in 6.9mph 75% 0in 36.00 watts/m^2
08:03 69.8°F 60.8°F 30.34in 5.6mph 73% 0in 53.00 watts/m^2
08:08 69.8°F 60.8°F 30.34in 3.6mph 73% 0in 28.00 watts/m^2
08:13 69.8°F 60.8°F 30.34in 3.1mph 73% 0in 29.00 watts/m^2
08:18 69.8°F 60.8°F 30.34in 1.1mph 73% 0in 30.00 watts/m^2
08:23 69.8°F 61.5°F 30.34in 6mph 75% 0in 25.00 watts/m^2
08:28 70°F 61.7°F 30.34in 6.5mph 75% 0in 30.00 watts/m^2
08:33 70°F 61.7°F 30.34in 6.5mph 75% 0in 34.00 watts/m^2
08:38 69.8°F 60.8°F 30.34in 5.8mph 73% 0in 28.00 watts/m^2
08:43 69.8°F 60.8°F 30.34in 4.9mph 73% 0in 32.00 watts/m^2
08:48 69.8°F 60.8°F 30.34in 2.5mph 73% 0in 38.00 watts/m^2
08:53 70°F 61°F 30.34in 2.9mph 73% 0in 45.00 watts/m^2
08:58 70°F 61°F 30.34in 2.9mph 73% 0in 46.00 watts/m^2
09:03 70°F 61°F 30.34in 4.9mph 73% 0in 58.00 watts/m^2
09:08 70°F 61°F 30.33in 8.5mph 73% 0in 79.00 watts/m^2
09:13 70°F 61°F 30.34in 7.4mph 73% 0in 59.00 watts/m^2
09:18 70°F 61°F 30.34in 4.5mph 73% 0in 71.00 watts/m^2
09:23 70°F 61°F 30.33in 4.3mph 73% 0in 74.00 watts/m^2
09:28 70°F 61.7°F 30.33in 1.8mph 75% 0in 128.00 watts/m^2
09:33 70°F 61.7°F 30.33in 8.5mph 75% 0in 91.00 watts/m^2
09:38 70°F 61.7°F 30.33in 6.7mph 75% 0in 87.00 watts/m^2
09:43 70.2°F 61.9°F 30.33in 3.8mph 75% 0in 86.00 watts/m^2
09:48 70.2°F 61.9°F 30.33in 8.1mph 75% 0in 58.00 watts/m^2
09:53 70.2°F 61.9°F 30.33in 2.7mph 75% 0in 45.00 watts/m^2
09:58 70.2°F 61.9°F 30.33in 3.4mph 75% 0in 40.00 watts/m^2
10:03 70.2°F 61.2°F 30.33in 7.2mph 73% 0in 55.00 watts/m^2
10:08 70°F 61.7°F 30.32in 6mph 75% 0in 52.00 watts/m^2
10:13 70.2°F 61.9°F 30.33in 3.4mph 75% 0in 56.00 watts/m^2
10:18 70.2°F 61.9°F 30.32in 7.4mph 75% 0in 59.00 watts/m^2
10:23 70°F 61.7°F 30.33in 7.4mph 75% 0in 104.00 watts/m^2
10:28 70.2°F 61.9°F 30.32in 5.8mph 75% 0in 147.00 watts/m^2
10:33 70.2°F 61.9°F 30.32in 4.9mph 75% 0in 141.00 watts/m^2
10:38 70.3°F 62.1°F 30.32in 5.4mph 75% 0in 118.00 watts/m^2
10:43 70.3°F 62.1°F 30.32in 4.7mph 75% 0in 137.00 watts/m^2
10:48 70.3°F 62.1°F 30.32in 7.8mph 75% 0in 180.00 watts/m^2
10:53 70.3°F 62.1°F 30.31in 6.7mph 75% 0in 191.00 watts/m^2
10:58 70.5°F 62.2°F 30.32in 4.9mph 75% 0in 118.00 watts/m^2
11:03 70.5°F 62.2°F 30.31in 9.2mph 75% 0in 152.00 watts/m^2
11:08 70.5°F 62.2°F 30.31in 4.3mph 75% 0in 79.00 watts/m^2
11:13 70.5°F 62.2°F 30.31in 6.7mph 75% 0in 75.00 watts/m^2
11:18 70.5°F 62.2°F 30.31in 6.5mph 75% 0in 113.00 watts/m^2
11:23 70.5°F 62.2°F 30.31in 6mph 75% 0in 181.00 watts/m^2
11:28 70.5°F 62.2°F 30.31in 3.8mph 75% 0in 206.00 watts/m^2
11:33 70.7°F 62.4°F 30.30in 5.8mph 75% 0in 305.00 watts/m^2
11:38 70.7°F 61.7°F 30.30in 3.6mph 73% 0in 292.00 watts/m^2
11:43 70.9°F 61.9°F 30.29in 8.7mph 73% 0in 280.00 watts/m^2
11:48 70.9°F 61.9°F 30.29in 6mph 73% 0in 271.00 watts/m^2
11:53 71.1°F 61.9°F 30.29in 3.8mph 73% 0in 277.00 watts/m^2
11:58 71.2°F 62.1°F 30.29in 11.2mph 73% 0in 234.00 watts/m^2
12:03 71.2°F 62.1°F 30.29in 8.5mph 73% 0in 162.00 watts/m^2
12:08 71.2°F 62.1°F 30.28in 3.8mph 73% 0in 243.00 watts/m^2
12:13 71.4°F 62.2°F 30.28in 5.6mph 73% 0in 263.00 watts/m^2
12:18 71.4°F 62.2°F 30.28in 3.4mph 73% 0in 196.00 watts/m^2
12:23 71.4°F 62.2°F 30.27in 7.2mph 73% 0in 166.00 watts/m^2
12:28 71.2°F 62.1°F 30.27in 6.7mph 73% 0in 147.00 watts/m^2
12:33 71.4°F 62.2°F 30.27in 3.1mph 73% 0in 186.00 watts/m^2
12:38 71.4°F 62.2°F 30.27in 5.6mph 73% 0in 228.00 watts/m^2
12:43 71.4°F 62.2°F 30.27in 2.2mph 73% 0in 232.00 watts/m^2
12:48 71.4°F 63.1°F 30.27in 3.6mph 75% 0in 206.00 watts/m^2
12:53 71.8°F 62.6°F 30.27in 4.7mph 73% 0in 218.00 watts/m^2
12:59 71.6°F 62.4°F 30.27in 7.2mph 73% 0in 218.00 watts/m^2
13:04 71.6°F 62.4°F 30.27in 4.5mph 73% 0in 190.00 watts/m^2
13:09 71.4°F 62.2°F 30.26in 6.5mph 73% 0in 162.00 watts/m^2
13:14 71.4°F 62.2°F 30.26in 3.6mph 73% 0in 176.00 watts/m^2
13:19 71.4°F 63.1°F 30.26in 2.5mph 75% 0in 199.00 watts/m^2
13:23 71.6°F 63.3°F 30.26in 11mph 75% 0in 214.00 watts/m^2
13:28 71.4°F 62.2°F 30.26in 4.7mph 73% 0in 123.00 watts/m^2
13:34 71.4°F 63.1°F 30.25in 2.9mph 75% 0in 197.00 watts/m^2
13:39 71.8°F 63.5°F 30.25in 2.5mph 75% 0in 176.00 watts/m^2
13:44 71.8°F 63.5°F 30.25in 6.3mph 75% 0in 160.00 watts/m^2
13:49 71.6°F 63.3°F 30.25in 8.9mph 75% 0in 184.00 watts/m^2
13:54 71.6°F 63.3°F 30.24in 6.3mph 75% 0in 92.00 watts/m^2
13:59 71.6°F 63.3°F 30.24in 4.3mph 75% 0in 100.00 watts/m^2
14:04 71.6°F 63.3°F 30.24in 5.4mph 75% 0in 85.00 watts/m^2
14:09 71.6°F 63.3°F 30.24in 5.8mph 75% 0in 80.00 watts/m^2
14:14 71.6°F 63.3°F 30.24in 7.6mph 75% 0in 98.00 watts/m^2
14:19 71.6°F 63.3°F 30.23in 8.1mph 75% 0in 109.00 watts/m^2
14:24 71.6°F 63.7°F 30.23in 2.7mph 76% 0in 123.00 watts/m^2
14:29 71.6°F 63.7°F 30.23in 6.3mph 76% 0in 150.00 watts/m^2
14:34 71.6°F 63.7°F 30.22in 7.2mph 76% 0in 101.00 watts/m^2
14:39 71.6°F 63.7°F 30.22in 4.3mph 76% 0in 100.00 watts/m^2
14:44 71.8°F 63.9°F 30.22in 7.2mph 76% 0in 143.00 watts/m^2
14:49 71.8°F 63.9°F 30.22in 9.6mph 76% 0in 177.00 watts/m^2
14:54 71.8°F 63.9°F 30.22in 5.6mph 76% 0in 124.00 watts/m^2
14:59 71.8°F 63.9°F 30.21in 6.9mph 76% 0in 143.00 watts/m^2
15:04 71.8°F 63.9°F 30.22in 8.7mph 76% 0in 125.00 watts/m^2
15:09 71.8°F 63.9°F 30.21in 4.7mph 76% 0in 89.00 watts/m^2
Comma Delimited File
Powered by Weather Underground, Inc.